Time,TemperatureF,DewpointF,PressureIn,WindDirection,WindDirectionDegrees,WindSpeedMPH,WindSpeedGustMPH,Humidity,HourlyPrecipIn,Conditions,Clouds,dailyrainin,SoftwareType,DateUTC
2013-03-04 00:00:00,31.9,25.5,29.59,NW,316,2.1,10.0,77,0.00,,,0.02,WUHU216DAVISVP2,2013-03-04 05:00:00,
2013-03-04 00:05:00,31.8,25.4,29.59,North,2,3.8,10.0,77,0.00,,,0.00,WUHU216DAVISVP2,2013-03-04 05:05:00,
2013-03-04 00:10:00,31.8,25.4,29.59,NNE,14,3.8,10.0,77,0.00,,,0.00,WUHU216DAVISVP2,2013-03-04 05:10:00,
2013-03-04 00:15:00,31.8,25.4,29.59,NNE,17,2.5,12.0,77,0.00,,,0.00,WUHU216DAVISVP2,2013-03-04 05:15:00,
2013-03-04 00:20:00,31.9,25.5,29.59,NNE,15,3.0,12.0,77,0.00,,,0.00,WUHU216DAVISVP2,2013-03-04 05:20:00,
2013-03-04 00:25:00,31.9,25.5,29.59,NNW,347,3.6,12.0,77,0.00,,,0.00,WUHU216DAVISVP2,2013-03-04 05:25:00,
2013-03-04 00:30:00,31.9,25.2,29.59,North,355,1.8,13.0,76,0.00,,,0.00,WUHU216DAVISVP2,2013-03-04 05:30:00,
2013-03-04 00:35:00,31.9,25.5,29.59,NW,324,3.0,13.0,77,0.00,,,0.00,WUHU216DAVISVP2,2013-03-04 05:35:00,
2013-03-04 00:40:00,31.8,25.4,29.59,NNW,327,2.0,13.0,77,0.00,,,0.00,WUHU216DAVISVP2,2013-03-04 05:40:00,
2013-03-04 00:45:00,31.7,25.3,29.59,NW,310,2.0,13.0,77,0.00,,,0.00,WUHU216DAVISVP2,2013-03-04 05:45:00,
2013-03-04 00:50:00,31.8,25.4,29.59,NW,313,1.8,8.0,77,0.00,,,0.00,WUHU216DAVISVP2,2013-03-04 05:50:00,
2013-03-04 00:55:00,31.7,25.3,29.59,WNW,294,5.0,9.0,77,0.00,,,0.00,WUHU216DAVISVP2,2013-03-04 05:55:00,
2013-03-04 01:00:00,31.8,25.4,29.59,NNW,346,1.5,9.0,77,0.00,,,0.00,WUHU216DAVISVP2,2013-03-04 06:00:00,
2013-03-04 01:05:00,31.7,25.3,29.59,NNE,14,2.1,9.0,77,0.00,,,0.00,WUHU216DAVISVP2,2013-03-04 06:05:00,
2013-03-04 01:10:00,31.7,25.0,29.60,NW,322,2.0,10.0,76,0.00,,,0.00,WUHU216DAVISVP2,2013-03-04 06:10:00,
2013-03-04 01:15:00,31.7,25.3,29.59,NW,313,1.2,10.0,77,0.00,,,0.00,WUHU216DAVISVP2,2013-03-04 06:15:00,
2013-03-04 01:20:00,31.7,25.3,29.59,North,360,4.0,10.0,77,0.00,,,0.00,WUHU216DAVISVP2,2013-03-04 06:20:00,
2013-03-04 01:25:00,31.6,25.2,29.59,NNE,31,1.2,10.0,77,0.00,,,0.00,WUHU216DAVISVP2,2013-03-04 06:25:00,
2013-03-04 01:30:00,31.5,25.1,29.59,NNW,341,3.0,7.0,77,0.00,,,0.00,WUHU216DAVISVP2,2013-03-04 06:30:00,
2013-03-04 01:35:00,31.5,25.1,29.59,NNW,337,2.0,9.0,77,0.00,,,0.00,WUHU216DAVISVP2,2013-03-04 06:35:00,
2013-03-04 01:40:00,31.5,25.1,29.59,West,263,3.0,9.0,77,0.00,,,0.00,WUHU216DAVISVP2,2013-03-04 06:40:00,
2013-03-04 01:45:00,31.5,24.8,29.59,North,358,3.8,9.0,76,0.00,,,0.00,WUHU216DAVISVP2,2013-03-04 06:45:00,
2013-03-04 01:50:00,31.4,24.7,29.59,NW,312,4.0,9.0,76,0.00,,,0.00,WUHU216DAVISVP2,2013-03-04 06:50:00,
2013-03-04 01:55:00,31.4,25.1,29.59,NW,304,1.8,9.0,77,0.00,,,0.00,WUHU216DAVISVP2,2013-03-04 06:55:00,
2013-03-04 02:00:00,31.3,25.0,29.59,SSW,195,5.0,7.0,77,0.00,,,0.00,WUHU216DAVISVP2,2013-03-04 07:00:00,
2013-03-04 02:05:00,31.3,24.6,29.59,North,2,2.2,8.0,76,0.00,,,0.00,WUHU216DAVISVP2,2013-03-04 07:05:00,
2013-03-04 02:10:00,31.2,24.5,29.59,NW,314,8.0,8.0,76,0.00,,,0.00,WUHU216DAVISVP2,2013-03-04 07:10:00,
2013-03-04 02:15:00,31.0,24.7,29.59,NW,326,4.0,8.0,77,0.00,,,0.00,WUHU216DAVISVP2,2013-03-04 07:15:00,
2013-03-04 02:20:00,30.9,24.6,29.59,North,5,3.0,8.0,77,0.00,,,0.00,WUHU216DAVISVP2,2013-03-04 07:20:00,
2013-03-04 02:25:00,30.8,24.5,29.59,North,2,1.8,8.0,77,0.00,,,0.00,WUHU216DAVISVP2,2013-03-04 07:25:00,
2013-03-04 02:30:00,30.6,24.3,29.59,NNW,341,1.7,7.0,77,0.00,,,0.00,WUHU216DAVISVP2,2013-03-04 07:30:00,
2013-03-04 02:35:00,30.5,24.2,29.58,NW,312,2.9,9.0,77,0.00,,,0.00,WUHU216DAVISVP2,2013-03-04 07:35:00,
2013-03-04 02:40:00,30.4,24.1,29.58,North,359,1.9,9.0,77,0.00,,,0.00,WUHU216DAVISVP2,2013-03-04 07:40:00,
2013-03-04 02:45:00,30.3,24.0,29.58,North,9,1.6,9.0,77,0.00,,,0.00,WUHU216DAVISVP2,2013-03-04 07:45:00,
2013-03-04 02:50:00,30.2,24.2,29.59,NW,315,2.2,9.0,78,0.00,,,0.00,WUHU216DAVISVP2,2013-03-04 07:50:00,
2013-03-04 02:55:00,30.2,23.9,29.59,NNE,12,1.2,8.0,77,0.00,,,0.00,WUHU216DAVISVP2,2013-03-04 07:55:00,
2013-03-04 03:00:00,30.1,24.1,29.59,NNE,24,1.8,8.0,78,0.00,,,0.00,WUHU216DAVISVP2,2013-03-04 08:00:00,
2013-03-04 03:05:00,30.1,23.8,29.58,North,9,2.4,8.0,77,0.00,,,0.00,WUHU216DAVISVP2,2013-03-04 08:05:00,
2013-03-04 03:10:00,30.0,23.7,29.59,North,354,1.5,8.0,77,0.00,,,0.00,WUHU216DAVISVP2,2013-03-04 08:10:00,
2013-03-04 03:15:00,29.9,23.6,29.59,North,6,2.6,8.0,77,0.00,,,0.00,WUHU216DAVISVP2,2013-03-04 08:15:00,
2013-03-04 03:20:00,29.9,23.9,29.59,NNW,332,1.4,8.0,78,0.00,,,0.00,WUHU216DAVISVP2,2013-03-04 08:20:00,
2013-03-04 03:25:00,29.8,23.8,29.59,WNW,289,2.7,7.0,78,0.00,,,0.00,WUHU216DAVISVP2,2013-03-04 08:25:00,
2013-03-04 03:30:00,29.8,23.8,29.59,NNE,19,1.0,7.0,78,0.00,,,0.00,WUHU216DAVISVP2,2013-03-04 08:30:00,
2013-03-04 03:35:00,29.8,23.8,29.59,NNW,337,2.0,7.0,78,0.00,,,0.00,WUHU216DAVISVP2,2013-03-04 08:35:00,
2013-03-04 03:40:00,29.8,23.5,29.59,North,351,2.0,8.0,77,0.00,,,0.00,WUHU216DAVISVP2,2013-03-04 08:40:00,
2013-03-04 03:45:00,29.9,23.6,29.59,NNE,14,2.2,8.0,77,0.00,,,0.00,WUHU216DAVISVP2,2013-03-04 08:45:00,
2013-03-04 03:50:00,29.9,23.6,29.59,North,351,2.2,10.0,77,0.00,,,0.00,WUHU216DAVISVP2,2013-03-04 08:50:00,
2013-03-04 03:55:00,29.9,23.6,29.59,NNE,14,2.1,10.0,77,0.00,,,0.00,WUHU216DAVISVP2,2013-03-04 08:55:00,
2013-03-04 04:00:00,29.9,23.6,29.60,NNE,22,1.9,10.0,77,0.00,,,0.00,WUHU216DAVISVP2,2013-03-04 09:00:00,
2013-03-04 04:05:00,29.8,23.5,29.60,North,360,5.0,8.0,77,0.00,,,0.00,WUHU216DAVISVP2,2013-03-04 09:05:00,
2013-03-04 04:10:00,29.9,23.6,29.60,NE,38,2.0,8.0,77,0.00,,,0.00,WUHU216DAVISVP2,2013-03-04 09:10:00,
2013-03-04 04:15:00,29.8,23.5,29.60,NNE,26,3.0,8.0,77,0.00,,,0.00,WUHU216DAVISVP2,2013-03-04 09:15:00,
2013-03-04 04:20:00,29.9,23.6,29.60,North,2,4.0,9.0,77,0.00,,,0.00,WUHU216DAVISVP2,2013-03-04 09:20:00,
2013-03-04 04:25:00,29.9,23.6,29.60,NNE,16,2.8,9.0,77,0.00,,,0.00,WUHU216DAVISVP2,2013-03-04 09:25:00,
2013-03-04 04:30:00,29.9,23.6,29.60,NW,323,3.1,12.0,77,0.00,,,0.00,WUHU216DAVISVP2,2013-03-04 09:30:00,
2013-03-04 04:35:00,29.9,23.6,29.60,NNE,31,3.7,12.0,77,0.00,,,0.00,WUHU216DAVISVP2,2013-03-04 09:35:00,
2013-03-04 04:40:00,29.8,23.5,29.60,North,352,4.9,12.0,77,0.00,,,0.00,WUHU216DAVISVP2,2013-03-04 09:40:00,
2013-03-04 04:45:00,29.9,23.6,29.60,North,2,2.6,12.0,77,0.00,,,0.00,WUHU216DAVISVP2,2013-03-04 09:45:00,
2013-03-04 04:50:00,29.8,23.5,29.59,West,271,2.2,9.0,77,0.00,,,0.00,WUHU216DAVISVP2,2013-03-04 09:50:00,
2013-03-04 04:55:00,29.7,23.4,29.60,WNW,296,3.0,9.0,77,0.00,,,0.00,WUHU216DAVISVP2,2013-03-04 09:55:00,
2013-03-04 05:00:00,29.7,23.4,29.59,NW,313,2.0,7.0,77,0.00,,,0.00,WUHU216DAVISVP2,2013-03-04 10:00:00,
2013-03-04 05:05:00,29.6,23.6,29.60,NNE,26,9.0,9.0,78,0.00,,,0.00,WUHU216DAVISVP2,2013-03-04 10:05:00,
2013-03-04 05:10:00,29.7,23.4,29.60,NNE,28,1.5,9.0,77,0.00,,,0.00,WUHU216DAVISVP2,2013-03-04 10:10:00,
2013-03-04 05:15:00,29.6,23.3,29.59,North,353,3.4,9.0,77,0.00,,,0.00,WUHU216DAVISVP2,2013-03-04 10:15:00,
2013-03-04 05:20:00,29.6,23.3,29.60,North,357,1.5,12.0,77,0.00,,,0.00,WUHU216DAVISVP2,2013-03-04 10:20:00,
2013-03-04 05:25:00,29.5,23.5,29.60,NNW,347,2.0,12.0,78,0.00,,,0.00,WUHU216DAVISVP2,2013-03-04 10:25:00,
2013-03-04 05:30:00,29.5,23.2,29.60,WNW,295,3.0,12.0,77,0.00,,,0.00,WUHU216DAVISVP2,2013-03-04 10:30:00,
2013-03-04 05:35:00,29.5,23.5,29.60,North,356,1.2,12.0,78,0.00,,,0.00,WUHU216DAVISVP2,2013-03-04 10:35:00,
2013-03-04 05:40:00,29.4,23.4,29.60,NNW,330,2.3,6.0,78,0.00,,,0.00,WUHU216DAVISVP2,2013-03-04 10:40:00,
2013-03-04 05:45:00,29.4,23.4,29.60,NW,313,3.1,7.0,78,0.00,,,0.00,WUHU216DAVISVP2,2013-03-04 10:45:00,
2013-03-04 05:50:00,29.5,23.2,29.60,NNW,347,4.4,13.0,77,0.00,,,0.00,WUHU216DAVISVP2,2013-03-04 10:50:00,
2013-03-04 05:55:00,29.4,23.1,29.60,NNE,22,4.0,13.0,77,0.00,,,0.00,WUHU216DAVISVP2,2013-03-04 10:55:00,
2013-03-04 06:00:00,29.4,23.1,29.60,NW,306,5.0,13.0,77,0.00,,,0.00,WUHU216DAVISVP2,2013-03-04 11:00:00,
2013-03-04 06:05:00,29.4,23.1,29.60,WNW,296,2.4,13.0,77,0.00,,,0.00,WUHU216DAVISVP2,2013-03-04 11:05:00,
2013-03-04 06:10:00,29.4,23.1,29.60,NNW,346,2.5,11.0,77,0.00,,,0.00,WUHU216DAVISVP2,2013-03-04 11:10:00,
2013-03-04 06:15:00,29.3,23.3,29.61,NE,41,7.0,11.0,78,0.00,,,0.00,WUHU216DAVISVP2,2013-03-04 11:15:00,
2013-03-04 06:20:00,29.4,23.1,29.61,NNW,333,5.0,11.0,77,0.00,,,0.00,WUHU216DAVISVP2,2013-03-04 11:20:00,
2013-03-04 06:25:00,29.5,23.2,29.61,NW,319,3.0,10.0,77,0.00,,,0.00,WUHU216DAVISVP2,2013-03-04 11:25:00,
2013-03-04 06:30:00,29.5,23.2,29.61,WNW,285,3.4,10.0,77,0.00,,,0.00,WUHU216DAVISVP2,2013-03-04 11:30:00,
2013-03-04 06:35:00,29.5,23.2,29.60,North,4,3.5,7.0,77,0.00,,,0.00,WUHU216DAVISVP2,2013-03-04 11:35:00,
2013-03-04 06:40:00,29.5,23.2,29.60,North,351,2.3,8.0,77,0.00,,,0.00,WUHU216DAVISVP2,2013-03-04 11:40:00,
2013-03-04 06:45:00,29.5,23.5,29.60,North,351,1.3,11.0,78,0.00,,,0.00,WUHU216DAVISVP2,2013-03-04 11:45:00,
2013-03-04 06:50:00,29.6,23.3,29.61,North,5,2.4,11.0,77,0.00,,,0.00,WUHU216DAVISVP2,2013-03-04 11:50:00,
2013-03-04 06:55:00,29.6,23.3,29.61,NNW,334,1.3,11.0,77,0.00,,,0.00,WUHU216DAVISVP2,2013-03-04 11:55:00,
2013-03-04 07:00:00,29.6,23.3,29.61,WNW,286,8.0,11.0,77,0.00,,,0.00,WUHU216DAVISVP2,2013-03-04 12:00:00,
2013-03-04 07:05:00,29.7,23.4,29.61,North,8,3.7,8.0,77,0.00,,,0.00,WUHU216DAVISVP2,2013-03-04 12:05:00,
2013-03-04 07:10:00,29.8,23.5,29.60,NW,316,1.4,8.0,77,0.00,,,0.00,WUHU216DAVISVP2,2013-03-04 12:10:00,
2013-03-04 07:15:00,29.8,23.5,29.60,NNW,331,5.0,10.0,77,0.00,,,0.00,WUHU216DAVISVP2,2013-03-04 12:15:00,
2013-03-04 07:20:00,29.9,23.6,29.61,NW,306,3.0,10.0,77,0.00,,,0.00,WUHU216DAVISVP2,2013-03-04 12:20:00,
2013-03-04 07:25:00,29.9,23.6,29.61,North,355,3.0,11.0,77,0.00,,,0.00,WUHU216DAVISVP2,2013-03-04 12:25:00,
2013-03-04 07:30:00,29.9,23.3,29.61,WNW,289,3.8,11.0,76,0.00,,,0.00,WUHU216DAVISVP2,2013-03-04 12:30:00,
2013-03-04 07:35:00,29.9,23.3,29.61,WNW,292,2.1,11.0,76,0.00,,,0.00,WUHU216DAVISVP2,2013-03-04 12:35:00,
2013-03-04 07:40:00,29.9,23.3,29.62,NW,312,3.0,11.0,76,0.00,,,0.00,WUHU216DAVISVP2,2013-03-04 12:40:00,
2013-03-04 07:45:00,29.9,23.3,29.61,NW,316,5.0,11.0,76,0.00,,,0.00,WUHU216DAVISVP2,2013-03-04 12:45:00,
2013-03-04 07:50:00,29.9,23.3,29.61,North,355,3.0,10.0,76,0.00,,,0.00,WUHU216DAVISVP2,2013-03-04 12:50:00,
2013-03-04 07:55:00,30.0,23.1,29.62,NNW,348,5.9,14.0,75,0.00,,,0.00,WUHU216DAVISVP2,2013-03-04 12:55:00,
2013-03-04 08:00:00,30.1,23.5,29.61,WNW,284,5.0,14.0,76,0.00,,,0.00,WUHU216DAVISVP2,2013-03-04 13:00:00,
2013-03-04 08:05:00,30.2,23.3,29.61,NNE,22,1.8,14.0,75,0.00,,,0.00,WUHU216DAVISVP2,2013-03-04 13:05:00,
2013-03-04 08:10:00,30.4,23.5,29.61,North,5,7.0,14.0,75,0.00,,,0.00,WUHU216DAVISVP2,2013-03-04 13:10:00,
2013-03-04 08:15:00,30.5,23.2,29.61,NNW,334,2.9,14.0,74,0.00,,,0.00,WUHU216DAVISVP2,2013-03-04 13:15:00,
2013-03-04 08:20:00,30.6,23.3,29.60,NW,310,5.6,14.0,74,0.00,,,0.00,WUHU216DAVISVP2,2013-03-04 13:20:00,
2013-03-04 08:25:00,30.7,23.1,29.60,NE,34,3.4,14.0,73,0.00,,,0.00,WUHU216DAVISVP2,2013-03-04 13:25:00,
2013-03-04 08:30:00,30.7,23.1,29.60,WNW,293,3.1,11.0,73,0.00,,,0.00,WUHU216DAVISVP2,2013-03-04 13:30:00,
2013-03-04 08:35:00,30.8,23.2,29.60,WSW,240,5.0,11.0,73,0.00,,,0.00,WUHU216DAVISVP2,2013-03-04 13:35:00,
2013-03-04 08:40:00,30.8,22.9,29.60,NNW,342,6.0,8.0,72,0.00,,,0.00,WUHU216DAVISVP2,2013-03-04 13:40:00,
2013-03-04 08:45:00,30.8,22.9,29.60,North,357,6.5,13.0,72,0.00,,,0.00,WUHU216DAVISVP2,2013-03-04 13:45:00,
2013-03-04 08:50:00,31.0,23.1,29.60,North,358,4.8,13.0,72,0.00,,,0.00,WUHU216DAVISVP2,2013-03-04 13:50:00,
2013-03-04 08:55:00,31.2,23.3,29.60,NNW,339,9.0,13.0,72,0.00,,,0.00,WUHU216DAVISVP2,2013-03-04 13:55:00,
2013-03-04 09:00:00,31.3,23.0,29.60,North,6,5.3,16.0,71,0.00,,,0.00,WUHU216DAVISVP2,2013-03-04 14:00:00,
2013-03-04 09:05:00,31.6,23.3,29.60,NW,306,6.0,16.0,71,0.00,,,0.00,WUHU216DAVISVP2,2013-03-04 14:05:00,
2013-03-04 09:10:00,31.9,23.2,29.60,NNW,328,6.0,16.0,70,0.00,,,0.00,WUHU216DAVISVP2,2013-03-04 14:10:00,
2013-03-04 09:15:00,32.5,23.8,29.59,WNW,288,3.0,16.0,70,0.00,,,0.00,WUHU216DAVISVP2,2013-03-04 14:15:00,
2013-03-04 09:20:00,32.4,23.4,29.60,North,355,3.6,12.0,69,0.00,,,0.00,WUHU216DAVISVP2,2013-03-04 14:20:00,
2013-03-04 09:25:00,32.1,23.1,29.59,NNW,341,3.5,13.0,69,0.00,,,0.00,WUHU216DAVISVP2,2013-03-04 14:25:00,
2013-03-04 09:30:00,31.9,22.9,29.59,North,355,12.0,18.0,69,0.00,,,0.00,WUHU216DAVISVP2,2013-03-04 14:30:00,
2013-03-04 09:35:00,31.7,23.0,29.59,NNE,12,12.0,18.0,70,0.00,,,0.00,WUHU216DAVISVP2,2013-03-04 14:35:00,
2013-03-04 09:40:00,31.7,22.8,29.60,North,6,5.9,18.0,69,0.00,,,0.00,WUHU216DAVISVP2,2013-03-04 14:40:00,
2013-03-04 09:45:00,31.6,23.0,29.60,North,5,6.0,18.0,70,0.00,,,0.00,WUHU216DAVISVP2,2013-03-04 14:45:00,
2013-03-04 09:50:00,31.6,22.7,29.60,NNW,345,5.6,15.0,69,0.00,,,0.00,WUHU216DAVISVP2,2013-03-04 14:50:00,
2013-03-04 09:55:00,31.6,22.7,29.61,North,5,6.0,15.0,69,0.00,,,0.00,WUHU216DAVISVP2,2013-03-04 14:55:00,
2013-03-04 10:00:00,31.7,22.8,29.60,NNE,32,8.0,15.0,69,0.00,,,0.00,WUHU216DAVISVP2,2013-03-04 15:00:00,
2013-03-04 10:05:00,32.0,23.0,29.60,NW,310,4.0,15.0,69,0.00,,,0.00,WUHU216DAVISVP2,2013-03-04 15:05:00,
2013-03-04 10:10:00,32.4,23.4,29.60,NW,312,6.0,13.0,69,0.00,,,0.00,WUHU216DAVISVP2,2013-03-04 15:10:00,
2013-03-04 10:15:00,32.4,23.1,29.60,NNW,348,8.0,11.0,68,0.00,,,0.00,WUHU216DAVISVP2,2013-03-04 15:15:00,
2013-03-04 10:20:00,32.5,22.8,29.60,North,350,5.0,14.0,67,0.00,,,0.00,WUHU216DAVISVP2,2013-03-04 15:20:00,
2013-03-04 10:25:00,32.5,22.8,29.61,North,4,6.6,14.0,67,0.00,,,0.00,WUHU216DAVISVP2,2013-03-04 15:25:00,
2013-03-04 10:30:00,33.0,22.9,29.60,North,7,7.0,15.0,66,0.00,,,0.00,WUHU216DAVISVP2,2013-03-04 15:30:00,
2013-03-04 10:35:00,32.9,22.9,29.61,NNW,341,11.0,15.0,66,0.00,,,0.00,WUHU216DAVISVP2,2013-03-04 15:35:00,
2013-03-04 10:40:00,33.2,23.5,29.60,North,7,5.1,15.0,67,0.00,,,0.00,WUHU216DAVISVP2,2013-03-04 15:40:00,
2013-03-04 10:45:00,33.3,23.6,29.60,NW,320,3.1,17.0,67,0.00,,,0.00,WUHU216DAVISVP2,2013-03-04 15:45:00,
2013-03-04 10:50:00,33.2,23.5,29.60,NNW,345,6.9,17.0,67,0.00,,,0.00,WUHU216DAVISVP2,2013-03-04 15:50:00,
2013-03-04 10:55:00,33.1,23.4,29.60,North,355,11.0,17.0,67,0.00,,,0.00,WUHU216DAVISVP2,2013-03-04 15:55:00,
2013-03-04 11:00:00,33.1,23.4,29.60,NNW,345,4.9,17.0,67,0.00,,,0.00,WUHU216DAVISVP2,2013-03-04 16:00:00,
2013-03-04 11:05:00,32.9,23.6,29.60,North,11,8.0,14.0,68,0.00,,,0.00,WUHU216DAVISVP2,2013-03-04 16:05:00,
2013-03-04 11:10:00,33.0,23.7,29.60,NNE,20,7.0,14.0,68,0.00,,,0.00,WUHU216DAVISVP2,2013-03-04 16:10:00,
2013-03-04 11:15:00,33.2,24.2,29.60,North,352,2.5,15.0,69,0.00,,,0.00,WUHU216DAVISVP2,2013-03-04 16:15:00,
2013-03-04 11:20:00,33.6,24.9,29.59,North,355,2.9,15.0,70,0.00,,,0.00,WUHU216DAVISVP2,2013-03-04 16:20:00,
2013-03-04 11:25:00,33.8,24.1,29.60,NW,319,7.0,20.0,67,0.00,,,0.00,WUHU216DAVISVP2,2013-03-04 16:25:00,
2013-03-04 11:30:00,33.7,24.0,29.60,NNW,331,5.3,20.0,67,0.00,,,0.00,WUHU216DAVISVP2,2013-03-04 16:30:00,
2013-03-04 11:35:00,34.0,24.6,29.59,North,359,4.9,20.0,68,0.00,,,0.00,WUHU216DAVISVP2,2013-03-04 16:35:00,
2013-03-04 11:40:00,34.1,24.4,29.59,North,0,4.1,20.0,67,0.00,,,0.00,WUHU216DAVISVP2,2013-03-04 16:40:00,
2013-03-04 11:45:00,34.3,24.5,29.59,NNW,340,12.0,15.0,67,0.00,,,0.00,WUHU216DAVISVP2,2013-03-04 16:45:00,
2013-03-04 11:50:00,34.1,24.7,29.59,North,350,4.1,15.0,68,0.00,,,0.00,WUHU216DAVISVP2,2013-03-04 16:50:00,
2013-03-04 11:55:00,33.9,24.9,29.59,North,355,7.0,15.0,69,0.00,,,0.00,WUHU216DAVISVP2,2013-03-04 16:55:00,
2013-03-04 12:00:00,33.9,24.9,29.59,North,7,3.9,14.0,69,0.00,,,0.00,WUHU216DAVISVP2,2013-03-04 17:00:00,
2013-03-04 12:05:00,34.2,24.8,29.59,North,1,2.1,12.0,68,0.00,,,0.00,WUHU216DAVISVP2,2013-03-04 17:05:00,
2013-03-04 12:10:00,34.7,24.9,29.59,North,5,2.6,12.0,67,0.00,,,0.00,WUHU216DAVISVP2,2013-03-04 17:10:00,
2013-03-04 12:15:00,35.2,25.0,29.58,NNW,342,2.9,11.0,66,0.00,,,0.00,WUHU216DAVISVP2,2013-03-04 17:15:00,
2013-03-04 12:20:00,35.6,24.7,29.58,NNE,31,6.0,11.0,64,0.00,,,0.00,WUHU216DAVISVP2,2013-03-04 17:20:00,
2013-03-04 12:25:00,35.8,24.1,29.58,NNE,12,4.9,15.0,62,0.00,,,0.00,WUHU216DAVISVP2,2013-03-04 17:25:00,
2013-03-04 12:30:00,35.7,24.4,29.58,NNW,337,3.1,15.0,63,0.00,,,0.00,WUHU216DAVISVP2,2013-03-04 17:30:00,
2013-03-04 12:35:00,35.1,24.2,29.58,NNW,336,3.5,15.0,64,0.00,,,0.00,WUHU216DAVISVP2,2013-03-04 17:35:00,
2013-03-04 12:40:00,34.7,24.2,29.58,WNW,297,4.5,15.0,65,0.00,,,0.00,WUHU216DAVISVP2,2013-03-04 17:40:00,
2013-03-04 12:45:00,34.1,24.7,29.58,NW,319,3.9,10.0,68,0.00,,,0.00,WUHU216DAVISVP2,2013-03-04 17:45:00,
2013-03-04 12:50:00,33.5,25.8,29.58,WNW,285,3.9,12.0,73,0.00,,,0.00,WUHU216DAVISVP2,2013-03-04 17:50:00,
2013-03-04 12:55:00,32.7,26.9,29.58,NNW,344,2.2,12.0,79,0.00,,,0.00,WUHU216DAVISVP2,2013-03-04 17:55:00,
2013-03-04 13:00:00,31.9,27.0,29.58,NE,34,5.0,12.0,82,0.00,,,0.00,WUHU216DAVISVP2,2013-03-04 18:00:00,
2013-03-04 13:05:00,31.7,27.1,29.58,North,9,3.1,12.0,83,0.00,,,0.00,WUHU216DAVISVP2,2013-03-04 18:05:00,
2013-03-04 13:10:00,32.0,26.5,29.58,NW,324,4.2,10.0,80,0.00,,,0.00,WUHU216DAVISVP2,2013-03-04 18:10:00,
2013-03-04 13:15:00,32.6,26.2,29.58,WNW,290,4.1,11.0,77,0.00,,,0.00,WUHU216DAVISVP2,2013-03-04 18:15:00,
2013-03-04 13:20:00,33.2,26.8,29.57,WSW,240,1.3,11.0,77,0.00,,,0.00,WUHU216DAVISVP2,2013-03-04 18:20:00,
2013-03-04 13:25:00,33.8,26.8,29.57,NNW,348,2.3,11.0,75,0.00,,,0.00,WUHU216DAVISVP2,2013-03-04 18:25:00,
2013-03-04 13:29:00,34.1,26.7,29.57,WNW,290,3.3,11.0,74,0.00,,,0.00,WUHU216DAVISVP2,2013-03-04 18:29:00,
2013-03-04 13:34:00,34.0,26.0,29.57,NNW,343,4.2,10.0,72,0.00,,,0.00,WUHU216DAVISVP2,2013-03-04 18:34:00,
2013-03-04 13:39:00,34.1,26.1,29.58,North,5,2.1,12.0,72,0.00,,,0.00,WUHU216DAVISVP2,2013-03-04 18:39:00,
2013-03-04 13:44:00,34.6,26.2,29.58,WNW,294,2.0,12.0,71,0.00,,,0.00,WUHU216DAVISVP2,2013-03-04 18:44:00,
2013-03-04 13:49:00,35.3,26.6,29.57,NNW,338,6.0,12.0,70,0.00,,,0.00,WUHU216DAVISVP2,2013-03-04 18:49:00,
2013-03-04 13:54:00,35.6,26.2,29.57,NW,315,3.1,7.0,68,0.00,,,0.00,WUHU216DAVISVP2,2013-03-04 18:54:00,
2013-03-04 13:59:00,35.8,26.0,29.58,NNE,19,5.3,9.0,67,0.00,,,0.00,WUHU216DAVISVP2,2013-03-04 18:59:00,
2013-03-04 14:04:00,35.6,25.8,29.58,North,351,2.8,10.0,67,0.00,,,0.00,WUHU216DAVISVP2,2013-03-04 19:04:00,
2013-03-04 14:09:00,35.2,25.8,29.58,WNW,303,4.0,17.0,68,0.00,,,0.00,WUHU216DAVISVP2,2013-03-04 19:09:00,
2013-03-04 14:14:00,35.1,25.3,29.58,NNE,19,8.0,17.0,67,0.00,,,0.00,WUHU216DAVISVP2,2013-03-04 19:14:00,
2013-03-04 14:19:00,35.1,25.0,29.58,NNE,15,6.0,17.0,66,0.00,,,0.00,WUHU216DAVISVP2,2013-03-04 19:19:00,
2013-03-04 14:24:00,35.3,24.8,29.58,North,10,6.6,17.0,65,0.00,,,0.00,WUHU216DAVISVP2,2013-03-04 19:24:00,
2013-03-04 14:29:00,35.4,25.2,29.58,North,353,4.2,14.0,66,0.00,,,0.00,WUHU216DAVISVP2,2013-03-04 19:29:00,
2013-03-04 14:34:00,35.5,25.3,29.58,North,7,3.9,14.0,66,0.00,,,0.00,WUHU216DAVISVP2,2013-03-04 19:34:00,
2013-03-04 14:39:00,35.3,25.5,29.58,NW,313,3.2,12.0,67,0.00,,,0.00,WUHU216DAVISVP2,2013-03-04 19:39:00,
2013-03-04 14:44:00,35.1,25.7,29.58,NW,319,4.0,12.0,68,0.00,,,0.00,WUHU216DAVISVP2,2013-03-04 19:44:00,
2013-03-04 14:49:00,34.7,26.0,29.59,North,360,7.0,12.0,70,0.00,,,0.00,WUHU216DAVISVP2,2013-03-04 19:49:00,
2013-03-04 14:54:00,34.6,25.9,29.59,North,349,3.0,12.0,70,0.00,,,0.00,WUHU216DAVISVP2,2013-03-04 19:54:00,
2013-03-04 14:59:00,34.7,25.6,29.58,NW,309,5.0,12.0,69,0.00,,,0.00,WUHU216DAVISVP2,2013-03-04 19:59:00,
2013-03-04 15:04:00,34.8,25.7,29.58,NNW,327,7.0,12.0,69,0.00,,,0.00,WUHU216DAVISVP2,2013-03-04 20:04:00,
2013-03-04 15:09:00,34.6,25.9,29.58,NNW,333,4.0,14.0,70,0.00,,,0.00,WUHU216DAVISVP2,2013-03-04 20:09:00,
2013-03-04 15:14:00,34.4,26.4,29.59,NNE,30,3.0,14.0,72,0.00,,,0.00,WUHU216DAVISVP2,2013-03-04 20:14:00,
2013-03-04 15:19:00,34.3,26.6,29.59,West,263,3.0,14.0,73,0.00,,,0.00,WUHU216DAVISVP2,2013-03-04 20:19:00,
2013-03-04 15:24:00,34.2,26.5,29.59,NW,312,3.0,14.0,73,0.00,,,0.00,WUHU216DAVISVP2,2013-03-04 20:24:00,
2013-03-04 15:29:00,33.9,26.9,29.60,West,264,3.0,12.0,75,0.00,,,0.00,WUHU216DAVISVP2,2013-03-04 20:29:00,
2013-03-04 15:34:00,33.8,27.1,29.60,NW,314,1.1,10.0,76,0.00,,,0.00,WUHU216DAVISVP2,2013-03-04 20:34:00,
2013-03-04 15:39:00,33.8,27.1,29.60,WNW,290,3.4,10.0,76,0.00,,,0.00,WUHU216DAVISVP2,2013-03-04 20:39:00,
2013-03-04 15:44:00,33.8,26.4,29.60,North,9,1.7,10.0,74,0.00,,,0.00,WUHU216DAVISVP2,2013-03-04 20:44:00,
2013-03-04 15:49:00,33.9,26.9,29.60,NNW,344,3.0,9.0,75,0.00,,,0.00,WUHU216DAVISVP2,2013-03-04 20:49:00,
2013-03-04 15:54:00,34.1,26.7,29.60,NNE,24,3.0,9.0,74,0.00,,,0.00,WUHU216DAVISVP2,2013-03-04 20:54:00,
2013-03-04 15:59:00,34.2,26.8,29.60,NNE,19,4.8,12.0,74,0.00,,,0.00,WUHU216DAVISVP2,2013-03-04 20:59:00,
2013-03-04 16:04:00,33.9,27.2,29.61,NW,309,5.0,12.0,76,0.00,,,0.00,WUHU216DAVISVP2,2013-03-04 21:04:00,
2013-03-04 16:09:00,33.6,27.5,29.61,NNE,16,3.5,12.0,78,0.00,,,0.00,WUHU216DAVISVP2,2013-03-04 21:09:00,
2013-03-04 16:14:00,33.3,27.2,29.61,NW,311,4.0,13.0,78,0.00,,,0.00,WUHU216DAVISVP2,2013-03-04 21:14:00,
2013-03-04 16:19:00,33.0,27.2,29.61,North,5,6.0,13.0,79,0.00,,,0.00,WUHU216DAVISVP2,2013-03-04 21:19:00,
2013-03-04 16:24:00,32.7,27.5,29.62,NNW,332,4.0,13.0,81,0.00,,,0.00,WUHU216DAVISVP2,2013-03-04 21:24:00,
2013-03-04 16:29:00,32.5,27.9,29.62,NNW,340,7.0,15.0,83,0.00,,,0.00,WUHU216DAVISVP2,2013-03-04 21:29:00,
2013-03-04 16:34:00,32.1,27.8,29.62,North,355,5.0,15.0,84,0.00,,,0.00,WUHU216DAVISVP2,2013-03-04 21:34:00,
2013-03-04 16:39:00,32.0,27.7,29.62,NNW,335,2.9,15.0,84,0.00,,,0.00,WUHU216DAVISVP2,2013-03-04 21:39:00,
2013-03-04 16:44:00,32.0,27.7,29.62,NW,322,4.2,15.0,84,0.00,,,0.00,WUHU216DAVISVP2,2013-03-04 21:44:00,
2013-03-04 16:49:00,32.1,27.8,29.63,North,349,3.7,13.0,84,0.00,,,0.00,WUHU216DAVISVP2,2013-03-04 21:49:00,
2013-03-04 16:54:00,32.1,27.5,29.63,West,280,5.0,13.0,83,0.00,,,0.00,WUHU216DAVISVP2,2013-03-04 21:54:00,
2013-03-04 16:59:00,32.1,27.8,29.63,NNW,336,5.0,13.0,84,0.00,,,0.00,WUHU216DAVISVP2,2013-03-04 21:59:00,
2013-03-04 17:04:00,32.0,27.7,29.63,North,4,2.7,13.0,84,0.00,,,0.00,WUHU216DAVISVP2,2013-03-04 22:04:00,
2013-03-04 17:09:00,31.9,27.9,29.63,North,354,3.1,11.0,85,0.00,,,0.00,WUHU216DAVISVP2,2013-03-04 22:09:00,
2013-03-04 17:14:00,31.8,27.8,29.64,North,9,6.0,11.0,85,0.00,,,0.00,WUHU216DAVISVP2,2013-03-04 22:14:00,
2013-03-04 17:19:00,31.6,27.9,29.64,NNE,25,5.0,11.0,86,0.00,,,0.00,WUHU216DAVISVP2,2013-03-04 22:19:00,
2013-03-04 17:24:00,31.4,27.9,29.64,NNW,328,3.0,11.0,87,0.00,,,0.00,WUHU216DAVISVP2,2013-03-04 22:24:00,
2013-03-04 17:29:00,31.2,28.0,29.64,NNW,334,3.0,11.0,88,0.00,,,0.00,WUHU216DAVISVP2,2013-03-04 22:29:00,
2013-03-04 17:34:00,31.0,28.1,29.65,North,355,2.0,10.0,89,0.00,,,0.00,WUHU216DAVISVP2,2013-03-04 22:34:00,
2013-03-04 17:39:00,30.7,28.1,29.65,North,355,7.0,11.0,90,0.00,,,0.00,WUHU216DAVISVP2,2013-03-04 22:39:00,
2013-03-04 17:44:00,30.6,28.0,29.65,NNE,16,2.9,11.0,90,0.00,,,0.00,WUHU216DAVISVP2,2013-03-04 22:44:00,
2013-03-04 17:49:00,30.4,28.0,29.66,NE,42,2.1,11.0,91,0.00,,,0.00,WUHU216DAVISVP2,2013-03-04 22:49:00,
2013-03-04 17:54:00,30.4,28.0,29.66,NNW,327,3.2,11.0,91,0.00,,,0.00,WUHU216DAVISVP2,2013-03-04 22:54:00,
2013-03-04 17:59:00,30.3,27.7,29.66,North,356,2.0,8.0,90,0.00,,,0.00,WUHU216DAVISVP2,2013-03-04 22:59:00,
2013-03-04 18:04:00,30.3,27.7,29.66,NNE,27,2.7,9.0,90,0.00,,,0.00,WUHU216DAVISVP2,2013-03-04 23:04:00,
2013-03-04 18:09:00,30.3,27.7,29.67,NNW,337,2.9,9.0,90,0.00,,,0.00,WUHU216DAVISVP2,2013-03-04 23:09:00,
2013-03-04 18:14:00,30.3,27.4,29.67,NNW,341,7.0,9.0,89,0.00,,,0.00,WUHU216DAVISVP2,2013-03-04 23:14:00,
2013-03-04 18:19:00,30.4,27.2,29.67,NNW,336,4.0,11.0,88,0.00,,,0.00,WUHU216DAVISVP2,2013-03-04 23:19:00,
2013-03-04 18:24:00,30.5,27.1,29.67,North,353,3.7,12.0,87,0.00,,,0.00,WUHU216DAVISVP2,2013-03-04 23:24:00,
2013-03-04 18:29:00,30.5,26.8,29.67,NNW,339,3.4,12.0,86,0.00,,,0.00,WUHU216DAVISVP2,2013-03-04 23:29:00,
2013-03-04 18:34:00,30.6,26.6,29.67,NNW,343,4.6,12.0,85,0.00,,,0.00,WUHU216DAVISVP2,2013-03-04 23:34:00,
2013-03-04 18:39:00,30.7,26.4,29.67,West,263,1.8,11.0,84,0.00,,,0.00,WUHU216DAVISVP2,2013-03-04 23:39:00,
2013-03-04 18:44:00,30.8,26.2,29.67,NNE,21,3.9,12.0,83,0.00,,,0.00,WUHU216DAVISVP2,2013-03-04 23:44:00,
2013-03-04 18:49:00,30.9,26.0,29.67,NW,326,2.9,12.0,82,0.00,,,0.00,WUHU216DAVISVP2,2013-03-04 23:49:00,
2013-03-04 18:54:00,30.9,25.8,29.67,NNE,17,1.6,12.0,81,0.00,,,0.00,WUHU216DAVISVP2,2013-03-04 23:54:00,
2013-03-04 18:59:00,31.0,25.6,29.67,NNW,332,7.0,11.0,80,0.00,,,0.00,WUHU216DAVISVP2,2013-03-04 23:59:00,
2013-03-04 19:04:00,31.0,25.3,29.68,NNE,12,4.1,12.0,79,0.00,,,0.00,WUHU216DAVISVP2,2013-03-05 00:04:00,
2013-03-04 19:09:00,31.0,25.0,29.68,North,4,2.1,12.0,78,0.00,,,0.00,WUHU216DAVISVP2,2013-03-05 00:09:00,
2013-03-04 19:14:00,31.0,25.0,29.68,NE,39,2.7,12.0,78,0.00,,,0.00,WUHU216DAVISVP2,2013-03-05 00:14:00,
2013-03-04 19:19:00,31.0,24.7,29.68,NNW,346,4.8,12.0,77,0.00,,,0.00,WUHU216DAVISVP2,2013-03-05 00:19:00,
2013-03-04 19:24:00,31.1,24.8,29.68,North,353,1.7,9.0,77,0.00,,,0.00,WUHU216DAVISVP2,2013-03-05 00:24:00,
2013-03-04 19:29:00,31.0,24.4,29.69,NNW,329,5.0,9.0,76,0.00,,,0.00,WUHU216DAVISVP2,2013-03-05 00:29:00,
2013-03-04 19:34:00,31.1,24.5,29.69,North,358,2.2,9.0,76,0.00,,,0.00,WUHU216DAVISVP2,2013-03-05 00:34:00,
2013-03-04 19:39:00,31.0,24.0,29.69,NNW,345,4.6,12.0,75,0.00,,,0.00,WUHU216DAVISVP2,2013-03-05 00:39:00,
2013-03-04 19:44:00,31.0,24.4,29.70,NW,312,2.6,12.0,76,0.00,,,0.00,WUHU216DAVISVP2,2013-03-05 00:44:00,
2013-03-04 19:49:00,30.9,23.9,29.70,NE,44,6.0,12.0,75,0.00,,,0.00,WUHU216DAVISVP2,2013-03-05 00:49:00,
2013-03-04 19:54:00,30.8,24.2,29.70,NW,311,5.0,12.0,76,0.00,,,0.00,WUHU216DAVISVP2,2013-03-05 00:54:00,
2013-03-04 19:59:00,30.6,23.7,29.70,NNE,29,4.0,9.0,75,0.00,,,0.00,WUHU216DAVISVP2,2013-03-05 00:59:00,
2013-03-04 20:04:00,30.3,23.4,29.69,NNW,334,5.0,12.0,75,0.00,,,0.00,WUHU216DAVISVP2,2013-03-05 01:04:00,
2013-03-04 20:09:00,30.1,23.5,29.70,ENE,67,3.0,12.0,76,0.00,,,0.00,WUHU216DAVISVP2,2013-03-05 01:09:00,
2013-03-04 20:14:00,30.0,23.1,29.71,NNE,23,2.7,12.0,75,0.00,,,0.00,WUHU216DAVISVP2,2013-03-05 01:14:00,
2013-03-04 20:19:00,29.9,23.0,29.71,South,170,2.1,12.0,75,0.00,,,0.00,WUHU216DAVISVP2,2013-03-05 01:19:00,
2013-03-04 20:24:00,29.8,22.9,29.71,SE,130,2.4,11.0,75,0.00,,,0.00,WUHU216DAVISVP2,2013-03-05 01:24:00,
2013-03-04 20:29:00,29.7,23.1,29.72,West,271,3.0,10.0,76,0.00,,,0.00,WUHU216DAVISVP2,2013-03-05 01:29:00,
2013-03-04 20:34:00,29.6,23.0,29.72,East,82,3.0,8.0,76,0.00,,,0.00,WUHU216DAVISVP2,2013-03-05 01:34:00,
2013-03-04 20:39:00,29.5,22.9,29.72,West,271,2.8,8.0,76,0.00,,,0.00,WUHU216DAVISVP2,2013-03-05 01:39:00,
2013-03-04 20:44:00,29.5,22.9,29.72,North,5,3.0,8.0,76,0.00,,,0.00,WUHU216DAVISVP2,2013-03-05 01:44:00,
2013-03-04 20:49:00,29.5,23.2,29.72,WSW,240,3.6,8.0,77,0.00,,,0.00,WUHU216DAVISVP2,2013-03-05 01:49:00,
2013-03-04 20:54:00,29.5,23.2,29.72,South,184,2.0,7.0,77,0.00,,,0.00,WUHU216DAVISVP2,2013-03-05 01:54:00,
2013-03-04 20:59:00,29.5,23.2,29.72,West,266,1.3,8.0,77,0.00,,,0.00,WUHU216DAVISVP2,2013-03-05 01:59:00,
2013-03-04 21:04:00,29.5,23.2,29.73,NNE,27,4.0,8.0,77,0.00,,,0.00,WUHU216DAVISVP2,2013-03-05 02:04:00,
2013-03-04 21:09:00,29.5,23.2,29.73,NNW,338,3.5,13.0,77,0.00,,,0.00,WUHU216DAVISVP2,2013-03-05 02:09:00,
2013-03-04 21:14:00,29.6,23.3,29.73,ESE,119,3.0,13.0,77,0.00,,,0.00,WUHU216DAVISVP2,2013-03-05 02:14:00,
2013-03-04 21:19:00,29.5,23.2,29.73,NNW,340,2.2,13.0,77,0.00,,,0.00,WUHU216DAVISVP2,2013-03-05 02:19:00,
2013-03-04 21:24:00,29.4,23.1,29.73,West,260,1.9,13.0,77,0.00,,,0.00,WUHU216DAVISVP2,2013-03-05 02:24:00,
2013-03-04 21:29:00,29.3,23.0,29.73,WNW,292,3.4,11.0,77,0.00,,,0.00,WUHU216DAVISVP2,2013-03-05 02:29:00,
2013-03-04 21:34:00,29.2,22.9,29.73,WSW,239,5.0,11.0,77,0.00,,,0.00,WUHU216DAVISVP2,2013-03-05 02:34:00,
2013-03-04 21:39:00,29.1,22.8,29.73,WSW,245,5.0,11.0,77,0.00,,,0.00,WUHU216DAVISVP2,2013-03-05 02:39:00,
2013-03-04 21:44:00,28.9,22.6,29.73,SW,218,1.7,11.0,77,0.00,,,0.00,WUHU216DAVISVP2,2013-03-05 02:44:00,
2013-03-04 21:49:00,28.8,22.5,29.73,SW,235,1.2,9.0,77,0.00,,,0.00,WUHU216DAVISVP2,2013-03-05 02:49:00,
2013-03-04 21:54:00,28.8,22.5,29.73,NW,315,1.8,9.0,77,0.00,,,0.00,WUHU216DAVISVP2,2013-03-05 02:54:00,
2013-03-04 21:59:00,28.7,22.4,29.73,NW,321,3.0,5.0,77,0.00,,,0.00,WUHU216DAVISVP2,2013-03-05 02:59:00,
2013-03-04 22:04:00,28.7,22.4,29.74,NE,46,3.0,6.0,77,0.00,,,0.00,WUHU216DAVISVP2,2013-03-05 03:04:00,
2013-03-04 22:09:00,28.7,22.4,29.74,NE,44,2.0,6.0,77,0.00,,,0.00,WUHU216DAVISVP2,2013-03-05 03:09:00,
2013-03-04 22:14:00,28.7,22.7,29.74,East,96,1.3,6.0,78,0.00,,,0.00,WUHU216DAVISVP2,2013-03-05 03:14:00,
2013-03-04 22:19:00,28.7,22.7,29.74,SSW,201,1.0,5.0,78,0.00,,,0.00,WUHU216DAVISVP2,2013-03-05 03:19:00,
2013-03-04 22:24:00,28.8,22.8,29.74,SSW,201,0.0,5.0,78,0.00,,,0.00,WUHU216DAVISVP2,2013-03-05 03:24:00,
2013-03-04 22:29:00,28.8,22.8,29.74,SSW,201,1.0,5.0,78,0.00,,,0.00,WUHU216DAVISVP2,2013-03-05 03:29:00,
2013-03-04 22:34:00,28.9,23.2,29.74,WSW,237,4.0,5.0,79,0.00,,,0.00,WUHU216DAVISVP2,2013-03-05 03:34:00,
2013-03-04 22:39:00,29.0,23.0,29.74,NW,312,4.0,6.0,78,0.00,,,0.00,WUHU216DAVISVP2,2013-03-05 03:39:00,
2013-03-04 22:44:00,29.2,22.9,29.75,NNW,344,2.9,7.0,77,0.00,,,0.00,WUHU216DAVISVP2,2013-03-05 03:44:00,
2013-03-04 22:49:00,29.2,22.9,29.74,SW,235,1.8,7.0,77,0.00,,,0.00,WUHU216DAVISVP2,2013-03-05 03:49:00,
2013-03-04 22:54:00,29.2,22.9,29.74,NE,40,2.5,7.0,77,0.00,,,0.00,WUHU216DAVISVP2,2013-03-05 03:54:00,
2013-03-04 22:59:00,29.1,22.8,29.75,NNW,332,2.7,7.0,77,0.00,,,0.00,WUHU216DAVISVP2,2013-03-05 03:59:00,
2013-03-04 23:04:00,29.0,22.7,29.75,West,267,2.0,6.0,77,0.00,,,0.00,WUHU216DAVISVP2,2013-03-05 04:04:00,
2013-03-04 23:09:00,28.9,22.6,29.75,West,269,1.3,6.0,77,0.00,,,0.00,WUHU216DAVISVP2,2013-03-05 04:09:00,
2013-03-04 23:14:00,28.8,22.5,29.75,SW,225,3.0,5.0,77,0.00,,,0.00,WUHU216DAVISVP2,2013-03-05 04:14:00,
2013-03-04 23:19:00,28.8,22.5,29.75,SW,224,2.2,5.0,77,0.00,,,0.00,WUHU216DAVISVP2,2013-03-05 04:19:00,
2013-03-04 23:24:00,28.9,22.6,29.75,South,184,3.5,7.0,77,0.00,,,0.00,WUHU216DAVISVP2,2013-03-05 04:24:00,
2013-03-04 23:29:00,28.8,22.8,29.75,SSW,212,2.3,7.0,78,0.00,,,0.00,WUHU216DAVISVP2,2013-03-05 04:29:00,
2013-03-04 23:34:00,28.8,22.5,29.76,SSW,204,1.7,7.0,77,0.00,,,0.00,WUHU216DAVISVP2,2013-03-05 04:34:00,
2013-03-04 23:39:00,28.7,22.7,29.76,SSW,200,1.3,7.0,78,0.00,,,0.00,WUHU216DAVISVP2,2013-03-05 04:39:00,
2013-03-04 23:44:00,28.7,22.7,29.76,SSW,200,1.8,4.0,78,0.00,,,0.00,WUHU216DAVISVP2,2013-03-05 04:44:00,
2013-03-04 23:49:00,28.7,22.7,29.76,WNW,297,1.3,3.0,78,0.00,,,0.00,WUHU216DAVISVP2,2013-03-05 04:49:00,
2013-03-04 23:54:00,28.6,22.6,29.76,WNW,285,1.0,3.0,78,0.00,,,0.00,WUHU216DAVISVP2,2013-03-05 04:54:00,
2013-03-04 23:59:00,28.5,22.5,29.76,WNW,285,1.0,3.0,78,0.00,,,0.00,WUHU216DAVISVP2,2013-03-05 04:59:00,